Year,Month,Day,Hour,Minute,Value (Times are PST for temperature in C)
2018,09,18,00,00,7.30
2018,09,18,00,01,7.30
2018,09,18,00,02,7.30
2018,09,18,00,03,7.30
2018,09,18,00,04,7.30
2018,09,18,00,05,7.30
2018,09,18,00,06,7.30
2018,09,18,00,07,7.30
2018,09,18,00,08,7.30
2018,09,18,00,09,7.30
2018,09,18,00,10,7.30
2018,09,18,00,11,7.30
2018,09,18,00,12,7.30
2018,09,18,00,13,7.30
2018,09,18,00,14,7.30
2018,09,18,00,15,7.30
2018,09,18,00,16,7.30
2018,09,18,00,17,7.30
2018,09,18,00,18,7.20
2018,09,18,00,19,7.20
2018,09,18,00,20,7.20
2018,09,18,00,21,7.20
2018,09,18,00,22,7.20
2018,09,18,00,23,7.20
2018,09,18,00,24,7.20
2018,09,18,00,25,7.20
2018,09,18,00,26,7.20
2018,09,18,00,27,7.30
2018,09,18,00,28,7.30
2018,09,18,00,29,7.30
2018,09,18,00,30,7.30
2018,09,18,00,31,7.30
2018,09,18,00,32,7.30
2018,09,18,00,33,7.30
2018,09,18,00,34,7.30
2018,09,18,00,35,7.30
2018,09,18,00,36,7.30
2018,09,18,00,37,7.30
2018,09,18,00,38,7.30
2018,09,18,00,39,7.30
2018,09,18,00,40,7.30
2018,09,18,00,41,7.30
2018,09,18,00,42,7.30
2018,09,18,00,43,7.30
2018,09,18,00,44,7.30
2018,09,18,00,45,7.20
2018,09,18,00,46,7.20
2018,09,18,00,47,7.20
2018,09,18,00,48,7.20
2018,09,18,00,49,7.20
2018,09,18,00,50,7.20
2018,09,18,00,51,7.20
2018,09,18,00,52,7.20
2018,09,18,00,53,7.20
2018,09,18,00,54,7.20
2018,09,18,00,55,7.20
2018,09,18,00,56,7.20
2018,09,18,00,57,7.20
2018,09,18,00,58,7.20
2018,09,18,00,59,7.20
2018,09,18,01,00,7.20
2018,09,18,01,01,7.20
2018,09,18,01,02,7.20
2018,09,18,01,03,7.20
2018,09,18,01,04,7.20
2018,09,18,01,05,7.20
2018,09,18,01,06,7.20
2018,09,18,01,07,7.20
2018,09,18,01,08,7.20
2018,09,18,01,09,7.20
2018,09,18,01,10,7.20
2018,09,18,01,11,7.10
2018,09,18,01,12,7.10
2018,09,18,01,13,7.10
2018,09,18,01,14,7.10
2018,09,18,01,15,7.10
2018,09,18,01,16,7.10
2018,09,18,01,17,7.10
2018,09,18,01,18,7.10
2018,09,18,01,19,7.10
2018,09,18,01,20,7.10
2018,09,18,01,21,7.10
2018,09,18,01,22,7.10
2018,09,18,01,23,7.10
2018,09,18,01,24,7.10
2018,09,18,01,25,7.10
2018,09,18,01,26,7.10
2018,09,18,01,27,7.10
2018,09,18,01,28,7.10
2018,09,18,01,29,7.10
2018,09,18,01,30,7.10
2018,09,18,01,31,7.10
2018,09,18,01,32,7.10
2018,09,18,01,33,7.10
2018,09,18,01,34,7.10
2018,09,18,01,35,7.10
2018,09,18,01,36,7.10
2018,09,18,01,37,7.10
2018,09,18,01,38,7.10
2018,09,18,01,39,7.10
2018,09,18,01,40,7.10
2018,09,18,01,41,7.10
2018,09,18,01,42,7.10
2018,09,18,01,43,7.00
2018,09,18,01,44,7.00
2018,09,18,01,45,7.00
2018,09,18,01,46,7.00
2018,09,18,01,47,7.00
2018,09,18,01,48,7.00
2018,09,18,01,49,6.90
2018,09,18,01,50,6.90
2018,09,18,01,51,6.90
2018,09,18,01,52,6.90
2018,09,18,01,53,6.90
2018,09,18,01,54,6.80
2018,09,18,01,55,6.80
2018,09,18,01,56,6.80
2018,09,18,01,57,6.80
2018,09,18,01,58,6.80
2018,09,18,01,59,6.80
2018,09,18,02,00,6.80
2018,09,18,02,01,6.80
2018,09,18,02,02,6.80
2018,09,18,02,03,6.80
2018,09,18,02,04,6.80
2018,09,18,02,05,6.80
2018,09,18,02,06,6.80
2018,09,18,02,07,6.80
2018,09,18,02,08,6.80
2018,09,18,02,09,6.80
2018,09,18,02,10,6.80
2018,09,18,02,11,6.80
2018,09,18,02,12,6.80
2018,09,18,02,13,6.80
2018,09,18,02,14,6.80
2018,09,18,02,15,6.80
2018,09,18,02,16,6.80
2018,09,18,02,17,6.80
2018,09,18,02,18,6.80
2018,09,18,02,19,6.80
2018,09,18,02,20,6.80
2018,09,18,02,21,6.80
2018,09,18,02,22,6.90
2018,09,18,02,23,6.90
2018,09,18,02,24,6.90
2018,09,18,02,25,6.90
2018,09,18,02,26,6.90
2018,09,18,02,27,6.90
2018,09,18,02,28,6.80
2018,09,18,02,29,6.80
2018,09,18,02,30,6.80
2018,09,18,02,31,6.80
2018,09,18,02,32,6.80
2018,09,18,02,33,6.80
2018,09,18,02,34,6.80
2018,09,18,02,35,6.80
2018,09,18,02,36,6.80
2018,09,18,02,37,6.80
2018,09,18,02,38,6.80
2018,09,18,02,39,6.80
2018,09,18,02,40,6.80
2018,09,18,02,41,6.80
2018,09,18,02,42,6.80
2018,09,18,02,43,6.80
2018,09,18,02,44,6.80
2018,09,18,02,45,6.80
2018,09,18,02,46,6.80
2018,09,18,02,47,6.80
2018,09,18,02,48,6.80
2018,09,18,02,49,6.80
2018,09,18,02,50,6.80
2018,09,18,02,51,6.80
2018,09,18,02,52,6.80
2018,09,18,02,53,6.80
2018,09,18,02,54,6.80
2018,09,18,02,55,6.80
2018,09,18,02,56,6.80
2018,09,18,02,57,6.70
2018,09,18,02,58,6.70
2018,09,18,02,59,6.70
2018,09,18,03,00,6.70
2018,09,18,03,01,6.70
2018,09,18,03,02,6.70
2018,09,18,03,03,6.70
2018,09,18,03,04,6.70
2018,09,18,03,05,6.70
2018,09,18,03,06,6.70
2018,09,18,03,07,6.70
2018,09,18,03,08,6.70
2018,09,18,03,09,6.70
2018,09,18,03,10,6.70
2018,09,18,03,11,6.70
2018,09,18,03,12,6.70
2018,09,18,03,13,6.70
2018,09,18,03,14,6.70
2018,09,18,03,15,6.70
2018,09,18,03,16,6.70
2018,09,18,03,17,6.70
2018,09,18,03,18,6.70
2018,09,18,03,19,6.70
2018,09,18,03,20,6.70
2018,09,18,03,21,6.70
2018,09,18,03,22,6.70
2018,09,18,03,23,6.70
2018,09,18,03,24,6.70
2018,09,18,03,25,6.70
2018,09,18,03,26,6.70
2018,09,18,03,27,6.60
2018,09,18,03,28,6.60
2018,09,18,03,29,6.60
2018,09,18,03,30,6.60
2018,09,18,03,31,6.60
2018,09,18,03,32,6.60
2018,09,18,03,33,6.60
2018,09,18,03,34,6.60
2018,09,18,03,35,6.50
2018,09,18,03,36,6.50
2018,09,18,03,37,6.50
2018,09,18,03,38,6.50
2018,09,18,03,39,6.50
2018,09,18,03,40,6.50
2018,09,18,03,41,6.50
2018,09,18,03,42,6.50
2018,09,18,03,43,6.50
2018,09,18,03,44,6.50
2018,09,18,03,45,6.50
2018,09,18,03,46,6.50
2018,09,18,03,47,6.50
2018,09,18,03,48,6.50
2018,09,18,03,49,6.50
2018,09,18,03,50,6.40
2018,09,18,03,51,6.40
2018,09,18,03,52,6.40
2018,09,18,03,53,6.40
2018,09,18,03,54,6.40
2018,09,18,03,55,6.40
2018,09,18,03,56,6.40
2018,09,18,03,57,6.40
2018,09,18,03,58,6.40
2018,09,18,03,59,6.40
2018,09,18,04,00,6.40
2018,09,18,04,01,6.40
2018,09,18,04,02,6.40
2018,09,18,04,03,6.40
2018,09,18,04,04,6.40
2018,09,18,04,05,6.40
2018,09,18,04,06,6.40
2018,09,18,04,07,6.40
2018,09,18,04,08,6.40
2018,09,18,04,09,6.40
2018,09,18,04,10,6.40
2018,09,18,04,11,6.40
2018,09,18,04,12,6.40
2018,09,18,04,13,6.40
2018,09,18,04,14,6.40
2018,09,18,04,15,6.30
2018,09,18,04,16,6.30
2018,09,18,04,17,6.30
2018,09,18,04,18,6.30
2018,09,18,04,19,6.30
2018,09,18,04,20,6.30
2018,09,18,04,21,6.30
2018,09,18,04,22,6.30
2018,09,18,04,23,6.30
2018,09,18,04,24,6.20
2018,09,18,04,25,6.20
2018,09,18,04,26,6.20
2018,09,18,04,27,6.20
2018,09,18,04,28,6.20
2018,09,18,04,29,6.20
2018,09,18,04,30,6.20
2018,09,18,04,31,6.20
2018,09,18,04,32,6.20
2018,09,18,04,33,6.20
2018,09,18,04,34,6.20
2018,09,18,04,35,6.20
2018,09,18,04,36,6.20
2018,09,18,04,37,6.20
2018,09,18,04,38,6.20
2018,09,18,04,39,6.20
2018,09,18,04,40,6.20
2018,09,18,04,41,6.20
2018,09,18,04,42,6.20
2018,09,18,04,43,6.20
2018,09,18,04,44,6.20
2018,09,18,04,45,6.20
2018,09,18,04,46,6.20
2018,09,18,04,47,6.20
2018,09,18,04,48,6.20
2018,09,18,04,49,6.20
2018,09,18,04,50,6.20
2018,09,18,04,51,6.20
2018,09,18,04,52,6.20
2018,09,18,04,53,6.20
2018,09,18,04,54,6.20
2018,09,18,04,55,6.20
2018,09,18,04,56,6.20
2018,09,18,04,57,6.20
2018,09,18,04,58,6.20
2018,09,18,04,59,6.20
2018,09,18,05,00,6.20
2018,09,18,05,01,6.20
2018,09,18,05,02,6.10
2018,09,18,05,03,6.10
2018,09,18,05,04,6.10
2018,09,18,05,05,6.10
2018,09,18,05,06,6.10
2018,09,18,05,07,6.10
2018,09,18,05,08,6.00
2018,09,18,05,09,6.00
2018,09,18,05,10,6.00
2018,09,18,05,11,5.90
2018,09,18,05,12,5.90
2018,09,18,05,13,5.90
2018,09,18,05,14,5.90
2018,09,18,05,15,5.90
2018,09,18,05,16,5.90
2018,09,18,05,17,5.80
2018,09,18,05,18,5.90
2018,09,18,05,19,5.90
2018,09,18,05,20,5.90
2018,09,18,05,21,5.90
2018,09,18,05,22,5.90
2018,09,18,05,23,5.90
2018,09,18,05,24,5.90
2018,09,18,05,25,5.90
2018,09,18,05,26,5.90
2018,09,18,05,27,6.00
2018,09,18,05,28,6.00
2018,09,18,05,29,6.00
2018,09,18,05,30,5.90
2018,09,18,05,31,5.90
2018,09,18,05,32,5.90
2018,09,18,05,33,5.90
2018,09,18,05,34,5.90
2018,09,18,05,35,5.90
2018,09,18,05,36,5.90
2018,09,18,05,37,5.90
2018,09,18,05,38,5.80
2018,09,18,05,39,5.80
2018,09,18,05,40,5.80
2018,09,18,05,41,5.80
2018,09,18,05,42,5.80
2018,09,18,05,43,5.80
2018,09,18,05,44,5.80
2018,09,18,05,45,5.80
2018,09,18,05,46,5.80
2018,09,18,05,47,5.80
2018,09,18,05,48,5.80
2018,09,18,05,49,5.80
2018,09,18,05,50,5.80
2018,09,18,05,51,5.80
2018,09,18,05,52,5.70
2018,09,18,05,53,5.70
2018,09,18,05,54,5.70
2018,09,18,05,55,5.70
2018,09,18,05,56,5.70
2018,09,18,05,57,5.70
2018,09,18,05,58,5.70
2018,09,18,05,59,5.70
2018,09,18,06,00,5.70
2018,09,18,06,01,5.60
2018,09,18,06,02,5.60
2018,09,18,06,03,5.60
2018,09,18,06,04,5.60
2018,09,18,06,05,5.60
2018,09,18,06,06,5.50
2018,09,18,06,07,5.50
2018,09,18,06,08,5.50
2018,09,18,06,09,5.50
2018,09,18,06,10,5.50
2018,09,18,06,11,5.50
2018,09,18,06,12,5.50
2018,09,18,06,13,5.50
2018,09,18,06,14,5.50
2018,09,18,06,15,5.40
2018,09,18,06,16,5.40
2018,09,18,06,17,5.40
2018,09,18,06,18,5.40
2018,09,18,06,19,5.40
2018,09,18,06,20,5.40
2018,09,18,06,21,5.40
2018,09,18,06,22,5.50
2018,09,18,06,23,5.50
2018,09,18,06,24,5.50
2018,09,18,06,25,5.50
2018,09,18,06,26,5.50
2018,09,18,06,27,5.50
2018,09,18,06,28,5.50
2018,09,18,06,29,5.50
2018,09,18,06,30,5.50
2018,09,18,06,31,5.50
2018,09,18,06,32,5.50
2018,09,18,06,33,5.50
2018,09,18,06,34,5.50
2018,09,18,06,35,5.60
2018,09,18,06,36,5.50
2018,09,18,06,37,5.50
2018,09,18,06,38,5.50
2018,09,18,06,39,5.50
2018,09,18,06,40,5.50
2018,09,18,06,41,5.50
2018,09,18,06,42,5.50
2018,09,18,06,43,5.50
2018,09,18,06,44,5.60
2018,09,18,06,45,5.60
2018,09,18,06,46,5.60
2018,09,18,06,47,5.60
2018,09,18,06,48,5.60
2018,09,18,06,49,5.60
2018,09,18,06,50,5.60
2018,09,18,06,51,5.50
2018,09,18,06,52,5.50
2018,09,18,06,53,5.40
2018,09,18,06,54,5.40
2018,09,18,06,55,5.40
2018,09,18,06,56,5.40
2018,09,18,06,57,5.40
2018,09,18,06,58,5.40
2018,09,18,06,59,5.40
2018,09,18,07,00,5.40
2018,09,18,07,01,5.40
2018,09,18,07,02,5.40
2018,09,18,07,03,5.40
2018,09,18,07,04,5.40
2018,09,18,07,05,5.40
2018,09,18,07,06,5.40
2018,09,18,07,07,5.40
2018,09,18,07,08,5.40
2018,09,18,07,09,5.40
2018,09,18,07,10,5.40
2018,09,18,07,11,5.40
2018,09,18,07,12,5.40
2018,09,18,07,13,5.50
2018,09,18,07,14,5.50
2018,09,18,07,15,5.50
2018,09,18,07,16,5.50
2018,09,18,07,17,5.50
2018,09,18,07,18,5.50
2018,09,18,07,19,5.50
2018,09,18,07,20,5.50
2018,09,18,07,21,5.50
2018,09,18,07,22,5.50
2018,09,18,07,23,5.50
2018,09,18,07,24,5.50
2018,09,18,07,25,5.50
2018,09,18,07,26,5.60
2018,09,18,07,27,5.60
2018,09,18,07,28,5.60
2018,09,18,07,29,5.60
2018,09,18,07,30,5.60
2018,09,18,07,31,5.60
2018,09,18,07,32,5.60
2018,09,18,07,33,5.60
2018,09,18,07,34,5.60
2018,09,18,07,35,5.60
2018,09,18,07,36,5.60
2018,09,18,07,37,5.60
2018,09,18,07,38,5.70
2018,09,18,07,39,5.80
2018,09,18,07,40,5.80
2018,09,18,07,41,6.00
2018,09,18,07,42,6.10
2018,09,18,07,43,6.20
2018,09,18,07,44,6.30
2018,09,18,07,45,6.30
2018,09,18,07,46,6.30
2018,09,18,07,47,6.40
2018,09,18,07,48,6.40
2018,09,18,07,49,6.40
2018,09,18,07,50,6.40
2018,09,18,07,51,6.40
2018,09,18,07,52,6.40
2018,09,18,07,53,6.40
2018,09,18,07,54,6.40
2018,09,18,07,55,6.50
2018,09,18,07,56,6.50
2018,09,18,07,57,6.60
2018,09,18,07,58,6.60
2018,09,18,07,59,6.70
2018,09,18,08,00,6.80
2018,09,18,08,01,6.80
2018,09,18,08,02,6.90
2018,09,18,08,03,7.00
2018,09,18,08,04,7.00
2018,09,18,08,05,7.10
2018,09,18,08,06,7.10
2018,09,18,08,07,7.10
2018,09,18,08,08,7.20
2018,09,18,08,09,7.20
2018,09,18,08,10,7.30
2018,09,18,08,11,7.30
2018,09,18,08,12,7.30
2018,09,18,08,13,7.40
2018,09,18,08,14,7.40
2018,09,18,08,15,7.50
2018,09,18,08,16,7.50
2018,09,18,08,17,7.60
2018,09,18,08,18,7.70
2018,09,18,08,19,7.70
2018,09,18,08,20,7.80
2018,09,18,08,21,8.00
2018,09,18,08,22,8.10
2018,09,18,08,23,8.20
2018,09,18,08,24,8.30
2018,09,18,08,25,8.40
2018,09,18,08,26,8.40
2018,09,18,08,27,8.50
2018,09,18,08,28,8.60
2018,09,18,08,29,8.70
2018,09,18,08,30,8.80
2018,09,18,08,31,9.00
2018,09,18,08,32,9.10
2018,09,18,08,33,9.20
2018,09,18,08,34,9.30
2018,09,18,08,35,9.30
2018,09,18,08,36,9.40
2018,09,18,08,37,9.50
2018,09,18,08,38,9.60
2018,09,18,08,39,9.70
2018,09,18,08,40,9.80
2018,09,18,08,41,9.80
2018,09,18,08,42,9.90
2018,09,18,08,43,10.00
2018,09,18,08,44,10.10
2018,09,18,08,45,10.20
2018,09,18,08,46,10.40
2018,09,18,08,47,10.50
2018,09,18,08,48,10.60
2018,09,18,08,49,10.70
2018,09,18,08,50,10.80
2018,09,18,08,51,10.90
2018,09,18,08,52,11.00
2018,09,18,08,53,11.00
2018,09,18,08,54,11.00
2018,09,18,08,55,11.00
2018,09,18,08,56,10.90
2018,09,18,08,57,10.80
2018,09,18,08,58,10.80
2018,09,18,08,59,10.80
2018,09,18,09,00,10.90
2018,09,18,09,01,10.90
2018,09,18,09,02,11.00
2018,09,18,09,03,11.10
2018,09,18,09,04,11.10
2018,09,18,09,05,11.20
2018,09,18,09,06,11.20
2018,09,18,09,07,11.30
2018,09,18,09,08,11.40
2018,09,18,09,09,11.40
2018,09,18,09,10,11.50
2018,09,18,09,11,11.60
2018,09,18,09,12,11.70
2018,09,18,09,13,11.80
2018,09,18,09,14,11.90
2018,09,18,09,15,11.90
2018,09,18,09,16,12.00
2018,09,18,09,17,12.20
2018,09,18,09,18,12.30
2018,09,18,09,19,12.40
2018,09,18,09,20,12.60
2018,09,18,09,21,12.70
2018,09,18,09,22,12.80
2018,09,18,09,23,12.80
2018,09,18,09,24,12.90
2018,09,18,09,25,13.00
2018,09,18,09,26,13.10
2018,09,18,09,27,13.20
2018,09,18,09,28,13.30
2018,09,18,09,29,13.40
2018,09,18,09,30,13.50
2018,09,18,09,31,13.60
2018,09,18,09,32,13.70
2018,09,18,09,33,13.70
2018,09,18,09,34,13.70
2018,09,18,09,35,13.70
2018,09,18,09,36,13.70
2018,09,18,09,37,13.80
2018,09,18,09,38,13.80
2018,09,18,09,39,13.80
2018,09,18,09,40,13.80
2018,09,18,09,41,13.80
2018,09,18,09,42,13.70
2018,09,18,09,43,13.60
2018,09,18,09,44,13.50
2018,09,18,09,45,13.40
2018,09,18,09,46,13.40
2018,09,18,09,47,13.30
2018,09,18,09,48,13.30
2018,09,18,09,49,13.30
2018,09,18,09,50,13.30
2018,09,18,09,51,13.30
2018,09,18,09,52,13.30
2018,09,18,09,53,13.30
2018,09,18,09,54,13.30
2018,09,18,09,55,13.30
2018,09,18,09,56,13.30
2018,09,18,09,57,13.30
2018,09,18,09,58,13.30
2018,09,18,09,59,13.30
2018,09,18,10,00,13.30
2018,09,18,10,01,13.30
2018,09,18,10,02,13.40
2018,09,18,10,03,13.50
2018,09,18,10,04,13.60
2018,09,18,10,05,13.70
2018,09,18,10,06,13.80
2018,09,18,10,07,13.90
2018,09,18,10,08,13.90
2018,09,18,10,09,13.90
2018,09,18,10,10,13.90
2018,09,18,10,11,13.80
2018,09,18,10,12,13.80
2018,09,18,10,13,13.80
2018,09,18,10,14,13.90
2018,09,18,10,15,13.90
2018,09,18,10,16,13.90
2018,09,18,10,17,14.00
2018,09,18,10,18,14.10
2018,09,18,10,19,14.10
2018,09,18,10,20,14.20
2018,09,18,10,21,14.30
2018,09,18,10,22,14.40
2018,09,18,10,23,14.40
2018,09,18,10,24,14.40
2018,09,18,10,25,14.30
2018,09,18,10,26,14.20
2018,09,18,10,27,14.20
2018,09,18,10,28,14.20
2018,09,18,10,29,14.20
2018,09,18,10,30,14.20
2018,09,18,10,31,14.30
2018,09,18,10,32,14.30
2018,09,18,10,33,14.40
2018,09,18,10,34,14.50
2018,09,18,10,35,14.60
2018,09,18,10,36,14.60
2018,09,18,10,37,14.80
2018,09,18,10,38,14.80
2018,09,18,10,39,14.90
2018,09,18,10,40,15.00
2018,09,18,10,41,15.10
2018,09,18,10,42,15.20
2018,09,18,10,43,15.10
2018,09,18,10,44,15.10
2018,09,18,10,45,15.00
2018,09,18,10,46,15.00
2018,09,18,10,47,14.90
2018,09,18,10,48,15.00
2018,09,18,10,49,15.00
2018,09,18,10,50,15.10
2018,09,18,10,51,15.20
2018,09,18,10,52,15.30
2018,09,18,10,53,15.50
2018,09,18,10,54,15.60
2018,09,18,10,55,15.70
2018,09,18,10,56,15.80
2018,09,18,10,57,15.80
2018,09,18,10,58,15.90
2018,09,18,10,59,16.00
2018,09,18,11,00,16.10
2018,09,18,11,01,16.20
2018,09,18,11,02,16.20
2018,09,18,11,03,16.20
2018,09,18,11,04,16.20
2018,09,18,11,05,16.20
2018,09,18,11,06,16.30
2018,09,18,11,07,16.30
2018,09,18,11,08,16.20
2018,09,18,11,09,16.10
2018,09,18,11,10,16.00
2018,09,18,11,11,16.00
2018,09,18,11,12,16.10
2018,09,18,11,13,16.10
2018,09,18,11,14,16.20
2018,09,18,11,15,16.20
2018,09,18,11,16,16.20
2018,09,18,11,17,16.30
2018,09,18,11,18,16.40
2018,09,18,11,19,16.40
2018,09,18,11,20,16.40
2018,09,18,11,21,16.50
2018,09,18,11,22,16.50
2018,09,18,11,23,16.60
2018,09,18,11,24,16.60
2018,09,18,11,25,16.70
2018,09,18,11,26,16.70
2018,09,18,11,27,16.70
2018,09,18,11,28,16.70
2018,09,18,11,29,16.70
2018,09,18,11,30,16.70
2018,09,18,11,31,16.70
2018,09,18,11,32,16.70
2018,09,18,11,33,16.70
2018,09,18,11,34,16.70
2018,09,18,11,35,16.70
2018,09,18,11,36,16.70
2018,09,18,11,37,16.50
2018,09,18,11,38,16.40
2018,09,18,11,39,16.30
2018,09,18,11,40,16.20
2018,09,18,11,41,16.20
2018,09,18,11,42,16.20
2018,09,18,11,43,16.20
2018,09,18,11,44,16.30
2018,09,18,11,45,16.40
2018,09,18,11,46,16.40
2018,09,18,11,47,16.60
2018,09,18,11,48,16.70
2018,09,18,11,49,16.70
2018,09,18,11,50,16.70
2018,09,18,11,51,16.80
2018,09,18,11,52,16.70
2018,09,18,11,53,16.60
2018,09,18,11,54,16.60
2018,09,18,11,55,16.60
2018,09,18,11,56,16.60
2018,09,18,11,57,16.50
2018,09,18,11,58,16.50
2018,09,18,11,59,16.50
2018,09,18,12,00,16.60
2018,09,18,12,01,16.60
2018,09,18,12,02,16.70
2018,09,18,12,03,16.80
2018,09,18,12,04,16.80
2018,09,18,12,05,16.80
2018,09,18,12,06,16.70
2018,09,18,12,07,16.70
2018,09,18,12,08,16.50
2018,09,18,12,09,16.50
2018,09,18,12,10,16.40
2018,09,18,12,11,16.30
2018,09,18,12,12,16.30
2018,09,18,12,13,16.40
2018,09,18,12,14,16.50
2018,09,18,12,15,16.60
2018,09,18,12,16,16.60
2018,09,18,12,17,16.60
2018,09,18,12,18,16.60
2018,09,18,12,19,16.60
2018,09,18,12,20,16.60
2018,09,18,12,21,16.60
2018,09,18,12,22,16.70
2018,09,18,12,23,16.80
2018,09,18,12,24,16.80
2018,09,18,12,25,16.80
2018,09,18,12,26,16.90
2018,09,18,12,27,17.00
2018,09,18,12,28,17.00
2018,09,18,12,29,17.10
2018,09,18,12,30,17.20
2018,09,18,12,31,17.20
2018,09,18,12,32,17.20
2018,09,18,12,33,17.10
2018,09,18,12,34,17.00
2018,09,18,12,35,16.90
2018,09,18,12,36,16.90
2018,09,18,12,37,16.90
2018,09,18,12,38,16.90
2018,09,18,12,39,16.80
2018,09,18,12,40,16.80
2018,09,18,12,41,16.80
2018,09,18,12,42,16.80
2018,09,18,12,43,16.80
2018,09,18,12,44,16.80
2018,09,18,12,45,16.90
2018,09,18,12,46,16.90
2018,09,18,12,47,16.90
2018,09,18,12,48,16.80
2018,09,18,12,49,16.70
2018,09,18,12,50,16.70
2018,09,18,12,51,16.60
2018,09,18,12,52,16.70
2018,09,18,12,53,16.70
2018,09,18,12,54,16.80
2018,09,18,12,55,16.90
2018,09,18,12,56,16.90
2018,09,18,12,57,17.00
2018,09,18,12,58,17.10
2018,09,18,12,59,17.10
2018,09,18,13,00,17.10
2018,09,18,13,01,17.20
2018,09,18,13,02,17.20
2018,09,18,13,03,17.30
2018,09,18,13,04,17.40
2018,09,18,13,05,17.40
2018,09,18,13,06,17.40
2018,09,18,13,07,17.30
2018,09,18,13,08,17.30
2018,09,18,13,09,17.30
2018,09,18,13,10,17.30
2018,09,18,13,11,17.30
2018,09,18,13,12,17.20
2018,09,18,13,13,17.20
2018,09,18,13,14,17.20
2018,09,18,13,15,17.20
2018,09,18,13,16,17.20
2018,09,18,13,17,17.20
2018,09,18,13,18,17.10
2018,09,18,13,19,17.10
2018,09,18,13,20,17.20
2018,09,18,13,21,17.20
2018,09,18,13,22,17.20
2018,09,18,13,23,17.30
2018,09,18,13,24,17.40
2018,09,18,13,25,17.30
2018,09,18,13,26,17.30
2018,09,18,13,27,17.20
2018,09,18,13,28,17.20
2018,09,18,13,29,17.10
2018,09,18,13,30,17.20
2018,09,18,13,31,17.20
2018,09,18,13,32,17.20
2018,09,18,13,33,17.20
2018,09,18,13,34,17.30
2018,09,18,13,35,17.30
2018,09,18,13,36,17.40
2018,09,18,13,37,17.30
2018,09,18,13,38,17.30
2018,09,18,13,39,17.30
2018,09,18,13,40,17.30
2018,09,18,13,41,17.20
2018,09,18,13,42,17.20
2018,09,18,13,43,17.20
2018,09,18,13,44,17.20
2018,09,18,13,45,17.20
2018,09,18,13,46,17.20
2018,09,18,13,47,17.20
2018,09,18,13,48,17.20
2018,09,18,13,49,17.20
2018,09,18,13,50,17.30
2018,09,18,13,51,17.30
2018,09,18,13,52,17.30
2018,09,18,13,53,17.30
2018,09,18,13,54,17.20
2018,09,18,13,55,17.30
2018,09,18,13,56,17.30
2018,09,18,13,57,17.40
2018,09,18,13,58,17.50
2018,09,18,13,59,17.60
2018,09,18,14,00,17.60
2018,09,18,14,01,17.60
2018,09,18,14,02,17.60
2018,09,18,14,03,17.70
2018,09,18,14,04,17.70
2018,09,18,14,05,17.70
2018,09,18,14,06,17.60
2018,09,18,14,07,17.60
2018,09,18,14,08,17.50
2018,09,18,14,09,17.60
2018,09,18,14,10,17.60
2018,09,18,14,11,17.50
2018,09,18,14,12,17.60
2018,09,18,14,13,17.60
2018,09,18,14,14,17.60
2018,09,18,14,15,17.50
2018,09,18,14,16,17.50
2018,09,18,14,17,17.40
2018,09,18,14,18,17.40
2018,09,18,14,19,17.40
2018,09,18,14,20,17.30
2018,09,18,14,21,17.30
2018,09,18,14,22,17.30
2018,09,18,14,23,17.30
2018,09,18,14,24,17.40
2018,09,18,14,25,17.50
2018,09,18,14,26,17.50
2018,09,18,14,27,17.60
2018,09,18,14,28,17.60
2018,09,18,14,29,17.70
2018,09,18,14,30,17.70
2018,09,18,14,31,17.80
2018,09,18,14,32,17.80
2018,09,18,14,33,17.80
2018,09,18,14,34,17.80
2018,09,18,14,35,17.70
2018,09,18,14,36,17.60
2018,09,18,14,37,17.60
2018,09,18,14,38,17.60
2018,09,18,14,39,17.50
2018,09,18,14,40,17.50
2018,09,18,14,41,17.50
2018,09,18,14,42,17.40
2018,09,18,14,43,17.40
2018,09,18,14,44,17.40
2018,09,18,14,45,17.30
2018,09,18,14,46,17.40
2018,09,18,14,47,17.40
2018,09,18,14,48,17.50
2018,09,18,14,49,17.60
2018,09,18,14,50,17.60
2018,09,18,14,51,17.70
2018,09,18,14,52,17.90
2018,09,18,14,53,18.00
2018,09,18,14,54,18.10
2018,09,18,14,55,18.30
2018,09,18,14,56,18.40
2018,09,18,14,57,18.50
2018,09,18,14,58,18.40
2018,09,18,14,59,18.30
2018,09,18,15,00,18.30
2018,09,18,15,01,18.30
2018,09,18,15,02,18.30
2018,09,18,15,03,18.30
2018,09,18,15,04,18.30
2018,09,18,15,05,18.40
2018,09,18,15,06,18.40
2018,09,18,15,07,18.50
2018,09,18,15,08,18.50
2018,09,18,15,09,18.60
2018,09,18,15,10,18.50
2018,09,18,15,11,18.50
2018,09,18,15,12,18.40
2018,09,18,15,13,18.40
2018,09,18,15,14,18.30
2018,09,18,15,15,18.30
2018,09,18,15,16,18.20
2018,09,18,15,17,18.10
2018,09,18,15,18,18.10
2018,09,18,15,19,18.00
2018,09,18,15,20,17.90
2018,09,18,15,21,17.90
2018,09,18,15,22,17.90
2018,09,18,15,23,18.00
2018,09,18,15,24,18.00
2018,09,18,15,25,18.10
2018,09,18,15,26,18.30
2018,09,18,15,27,18.40
2018,09,18,15,28,18.40
2018,09,18,15,29,18.50
2018,09,18,15,30,18.60
2018,09,18,15,31,18.50
2018,09,18,15,32,18.40
2018,09,18,15,33,18.40
2018,09,18,15,34,18.40
2018,09,18,15,35,18.40
2018,09,18,15,36,18.40
2018,09,18,15,37,18.40
2018,09,18,15,38,18.40
2018,09,18,15,39,18.40
2018,09,18,15,40,18.40
2018,09,18,15,41,18.40
2018,09,18,15,42,18.40
2018,09,18,15,43,18.30
2018,09,18,15,44,18.20
2018,09,18,15,45,18.20
2018,09,18,15,46,18.20
2018,09,18,15,47,18.20
2018,09,18,15,48,18.20
2018,09,18,15,49,18.20
2018,09,18,15,50,18.20
2018,09,18,15,51,18.30
2018,09,18,15,52,18.30
2018,09,18,15,53,18.30
2018,09,18,15,54,18.30
2018,09,18,15,55,18.40
2018,09,18,15,56,18.40
2018,09,18,15,57,18.40
2018,09,18,15,58,18.40
2018,09,18,15,59,18.40
2018,09,18,16,00,18.40
2018,09,18,16,01,18.40
2018,09,18,16,02,18.30
2018,09,18,16,03,18.20
2018,09,18,16,04,18.10
2018,09,18,16,05,18.00
2018,09,18,16,06,17.90
2018,09,18,16,07,17.80
2018,09,18,16,08,17.80
2018,09,18,16,09,17.80
2018,09,18,16,10,17.90
2018,09,18,16,11,17.90
2018,09,18,16,12,18.00
2018,09,18,16,13,18.10
2018,09,18,16,14,18.10
2018,09,18,16,15,18.00
2018,09,18,16,16,18.00
2018,09,18,16,17,18.00
2018,09,18,16,18,18.00
2018,09,18,16,19,18.00
2018,09,18,16,20,18.10
2018,09,18,16,21,18.20
2018,09,18,16,22,18.20
2018,09,18,16,23,18.20
2018,09,18,16,24,18.20
2018,09,18,16,25,18.20
2018,09,18,16,26,18.20
2018,09,18,16,27,18.20
2018,09,18,16,28,18.20
2018,09,18,16,29,18.20
2018,09,18,16,30,18.20
2018,09,18,16,31,18.20
2018,09,18,16,32,18.20
2018,09,18,16,33,18.20
2018,09,18,16,34,18.20
2018,09,18,16,35,18.20
2018,09,18,16,36,18.20
2018,09,18,16,37,18.10
2018,09,18,16,38,18.10
2018,09,18,16,39,18.10
2018,09,18,16,40,18.10
2018,09,18,16,41,18.10
2018,09,18,16,42,18.20
2018,09,18,16,43,18.20
2018,09,18,16,44,18.20
2018,09,18,16,45,18.30
2018,09,18,16,46,18.40
2018,09,18,16,47,18.40
2018,09,18,16,48,18.30
2018,09,18,16,49,18.20
2018,09,18,16,50,18.10
2018,09,18,16,51,18.00
2018,09,18,16,52,18.00
2018,09,18,16,53,17.90
2018,09,18,16,54,17.80
2018,09,18,16,55,17.80
2018,09,18,16,56,17.80
2018,09,18,16,57,17.80
2018,09,18,16,58,17.80
2018,09,18,16,59,17.70
2018,09,18,17,00,17.70
2018,09,18,17,01,17.70
2018,09,18,17,02,17.60
2018,09,18,17,03,17.60
2018,09,18,17,04,17.60
2018,09,18,17,05,17.60
2018,09,18,17,06,17.70
2018,09,18,17,07,17.60
2018,09,18,17,08,17.60
2018,09,18,17,09,17.60
2018,09,18,17,10,17.60
2018,09,18,17,11,17.60
2018,09,18,17,12,17.50
2018,09,18,17,13,17.50
2018,09,18,17,14,17.40
2018,09,18,17,15,17.40
2018,09,18,17,16,17.30
2018,09,18,17,17,17.30
2018,09,18,17,18,17.30
2018,09,18,17,19,17.30
2018,09,18,17,20,17.30
2018,09,18,17,21,17.20
2018,09,18,17,22,17.20
2018,09,18,17,23,17.10
2018,09,18,17,24,17.10
2018,09,18,17,25,17.00
2018,09,18,17,26,17.00
2018,09,18,17,27,16.90
2018,09,18,17,28,16.90
2018,09,18,17,29,16.90
2018,09,18,17,30,16.80
2018,09,18,17,31,16.80
2018,09,18,17,32,16.80
2018,09,18,17,33,16.80
2018,09,18,17,34,16.80
2018,09,18,17,35,16.70
2018,09,18,17,36,16.70
2018,09,18,17,37,16.70
2018,09,18,17,38,16.80
2018,09,18,17,39,16.80
2018,09,18,17,40,16.80
2018,09,18,17,41,16.90
2018,09,18,17,42,16.90